GFSNGP_925_rhum_213.txt.gz
RH
75 79 81 77 76 72 68 61 70 56 52 41 35 33 31 29 30 42 75 90 87 89 98 98 100 100 100 100 100 100 100 100 100 100 100 100 100 96 87 75 67 47 31 27
58 54 61 65 60 66 68 65 64 58 58 39 37 40 40 36 35 43 75 91 87 88 97 98 99 100 100 99 100 100 100 100 100 100 100 99 94 87 76 68 66 52 33 22
44 30 40 60 41 45 50 53 55 61 56 67 72 66 60 56 46 40 73 89 88 93 96 97 99 100 100 100 100 100 100 100 100 100 100 96 84 77 80 83 67 39 25 24
75 60 79 23 44 47 59 79 76 78 68 64 64 61 57 53 53 57 59 90 95 88 90 99 100 100 100 100 100 100 100 100 100 100 100 99 97 95 89 67 40 28 26 24
85 74 52 41 43 73 76 86 77 72 71 64 62 57 52 49 54 58 66 85 89 82 83 95 99 100 100 100 99 100 100 100 100 97 99 99 94 80 52 31 28 27 27 29
80 84 77 53 86 81 75 90 78 64 72 74 68 86 69 56 54 63 88 93 88 80 81 82 96 100 100 100 99 99 100 100 98 98 93 79 63 40 29 25 27 28 30 32
83 90 75 86 73 55 82 84 66 62 73 73 77 69 66 58 50 62 87 89 80 77 79 80 88 92 90 91 89 86 86 80 74 65 56 44 29 28 28 29 30 30 29 31
71 68 76 65 38 58 52 32 69 69 59 78 64 60 66 55 50 62 84 81 76 76 78 78 80 86 88 86 81 76 66 60 54 47 36 28 29 32 30 30 30 31 32 38
57 47 33 29 34 31 58 75 71 60 46 69 68 72 67 59 54 64 79 82 77 77 77 76 76 76 74 80 76 64 57 51 42 31 28 29 31 34 34 31 30 38 40 44
66 50 45 41 37 35 36 56 46 33 50 65 70 70 69 64 64 73 78 83 78 78 76 74 72 68 69 67 60 54 48 42 36 35 38 35 32 32 31 35 37 39 45 56
60 49 43 40 37 36 36 35 37 50 66 55 60 67 70 66 66 81 76 78 78 77 76 74 70 75 73 67 59 49 42 40 41 41 36 36 34 35 36 38 38 44 55 61
75 45 43 42 36 34 38 36 35 38 38 38 50 65 68 71 70 88 79 77 78 77 76 72 68 63 57 52 50 44 47 50 43 41 41 44 46 58 56 49 69 74 68 62
48 42 43 42 41 41 43 41 39 40 39 43 42 61 67 69 76 90 89 78 76 75 69 65 61 56 50 50 46 39 49 52 69 90 60 50 57 60 78 85 78 66 61 58
78 88 89 78 78 58 50 45 42 41 40 42 55 72 75 85 79 92 93 78 70 64 60 58 55 53 51 50 55 54 72 86 92 70 48 50 50 53 56 62 64 58 58 58
63 65 82 80 69 63 49 50 51 52 54 60 72 73 77 88 88 90 92 88 66 63 58 56 56 62 58 48 62 83 80 92 70 50 50 50 56 62 64 65 62 63 66 66
65 63 62 81 76 70 56 54 55 52 50 49 58 75 77 86 91 99 97 93 94 85 59 57 60 61 73 86 82 66 56 48 48 51 63 62 66 68 69 66 71 75 78 79
82 80 70 72 67 77 75 68 55 53 53 58 57 70 90 100 99 99 99 96 98 90 76 72 72 69 81 72 52 48 52 63 53 60 67 68 70 66 67 73 78 84 88 84
70 70 71 73 73 71 72 76 60 55 55 54 67 96 99 98 96 97 99 99 98 98 95 84 67 70 89 94 73 52 56 66 63 65 67 66 67 70 75 80 88 92 84 78
85 86 82 74 71 71 70 78 70 55 54 79 99 99 99 99 98 98 98 98 97 96 98 97 98 95 61 52 51 60 68 71 66 67 68 81 89 88 89 91 89 85 84 88
87 87 90 80 77 76 76 80 79 96 99 100 97 96 96 97 98 98 98 97 97 97 97 95 68 60 60 62 56 58 62 64 68 75 79 81 84 88 89 96 95 95 90 86
92 95 93 88 89 89 96 97 97 97 99 96 95 96 96 97 97 97 95 93 98 96 91 80 69 81 82 78 62 64 66 71 80 83 86 90 85 85 87 89 90 88 86 86
93 93 94 95 94 95 96 96 96 96 96 96 96 96 95 96 96 97 97 96 99 92 80 82 81 84 90 72 70 73 81 87 88 92 94 91 86 85 87 89 88 88 90 91
93 93 93 93 94 95 95 95 96 95 95 96 96 96 96 98 95 89 93 98 95 92 86 86 86 87 90 74 83 94 97 98 96 95 91 86 89 91 91 92 94 95 94 94
93 93 94 95 94 90 92 95 96 97 97 97 97 97 96 95 98 99 98 97 98 94 94 93 94 100 94 97 99 97 94 91 86 84 86 90 92 93 94 89 90 91 93 93
90 91 91 91 91 93 94 95 94 95 96 96 97 99 96 94 97 98 96 97 96 93 94 96 100 91 88 87 87 88 89 92 90 92 98 99 97 92 94 96 95 95 96 96
86 89 92 95 95 95 94 91 91 91 89 92 98 99 93 87 89 89 92 85 82 83 87 95 93 91 94 95 95 95 93 91 88 86 89 89 88 89 90 89 89 89 90 90
84 83 85 85 93 96 95 91 92 94 95 94 99 99 94 95 100 91 89 89 89 89 88 87 88 87 86 84 83 82 83 84 86 88 89 88 87 87 89 90 92 92 91 90

GFSNGP_925_rhum_219.txt.gz
RH
26 24 25 30 35 35 42 42 48 40 32 25 22 37 41 38 37 39 37 40 39 41 49 42 60 66 81 91 99 100 100 100 100 100 100 98 96 91 89 88 84 78 72 76
43 28 24 24 20 20 21 22 24 30 32 21 36 37 40 40 40 40 36 38 39 41 53 48 57 76 93 99 100 100 100 100 100 100 100 100 100 100 100 100 92 85 95 93
50 30 40 40 27 27 27 22 24 21 26 42 40 38 34 32 34 34 36 39 39 43 56 58 58 86 96 100 100 100 100 100 100 100 100 100 100 100 100 100 100 99 94 79
67 49 53 24 20 25 46 54 51 50 48 43 40 34 30 30 26 27 31 38 38 42 54 75 82 96 99 99 99 100 100 100 100 100 100 100 100 100 100 100 98 89 73 56
64 43 29 22 26 50 59 54 72 52 39 34 34 36 31 22 23 25 28 34 37 42 58 76 96 99 100 100 100 100 100 100 100 100 100 100 100 100 100 98 92 90 82 91
57 62 52 19 23 35 21 37 46 32 29 26 24 37 37 28 25 23 27 33 38 44 60 76 99 100 100 100 100 100 100 100 99 100 100 100 100 100 100 100 99 99 100 100
35 50 35 20 17 19 45 36 26 23 25 25 28 26 24 23 27 26 28 33 40 45 62 77 95 100 100 100 99 100 100 100 100 100 100 100 100 100 100 100 100 100 99 98
36 45 58 18 21 40 33 26 27 30 30 32 31 28 27 28 29 29 35 35 39 46 64 76 96 100 99 98 100 100 100 100 100 100 100 100 98 100 100 99 99 99 97 96
47 45 26 25 31 27 27 31 30 33 33 32 33 32 29 29 28 30 27 33 36 44 63 74 93 100 98 100 100 100 100 100 100 100 100 100 99 100 100 98 93 75 52 51
68 49 38 31 28 29 29 31 30 31 34 35 37 35 35 30 29 28 28 32 36 45 62 80 93 98 96 100 100 100 99 100 100 100 100 100 99 87 62 52 41 41 45 52
63 46 41 37 33 33 38 40 42 41 42 46 42 40 37 36 34 30 30 32 38 47 68 88 98 100 99 100 96 87 88 93 92 97 96 94 78 56 44 34 34 36 42 49
82 65 60 55 45 44 50 53 52 55 60 64 61 54 47 42 36 34 33 36 40 50 72 94 100 100 100 100 93 80 79 80 82 63 46 43 52 56 46 38 37 41 46 49
56 45 44 42 40 41 48 57 47 45 46 61 69 58 52 44 39 36 36 39 44 52 73 91 100 100 100 100 98 89 78 72 63 52 51 54 61 74 86 84 51 50 49 57
44 46 61 51 55 47 46 44 45 44 44 49 68 55 49 44 39 37 38 42 48 57 87 99 100 100 100 100 99 95 91 73 54 55 60 76 78 73 72 73 73 79 80 78
54 55 57 53 49 48 46 46 50 48 45 48 74 65 43 43 43 41 41 46 65 88 93 100 100 100 100 100 98 98 91 83 84 92 92 91 88 78 76 69 66 71 78 79
75 64 56 54 53 52 50 49 50 49 46 46 48 59 56 46 43 44 51 70 98 97 99 100 100 99 100 99 99 98 95 93 92 96 100 94 73 68 66 60 59 64 69 72
90 81 80 79 71 66 64 63 58 51 49 49 49 61 66 61 55 69 89 95 99 100 100 100 100 99 99 99 99 100 100 99 95 96 98 91 73 67 64 63 63 64 62 65
89 87 88 91 92 92 85 83 67 54 52 53 78 90 84 77 78 87 95 99 100 100 100 100 99 99 99 99 99 100 99 100 99 98 93 74 66 64 65 64 63 65 70 80
91 93 92 92 86 72 68 65 60 64 80 96 98 96 98 99 98 98 99 97 96 94 100 99 99 99 99 99 99 98 97 97 94 79 72 66 68 68 71 72 75 77 75 78
90 92 92 92 91 92 90 94 96 96 98 98 97 96 96 97 97 97 96 96 98 98 98 98 98 98 98 98 98 97 97 90 81 77 75 76 79 82 83 82 82 82 82 82
92 93 92 92 92 93 94 95 94 94 96 96 94 95 95 97 97 96 92 92 98 98 98 97 97 98 97 97 92 89 88 86 84 86 86 87 86 87 87 89 89 89 88 86
93 93 93 93 93 93 95 95 94 94 95 95 96 96 95 95 95 96 98 96 98 98 98 98 98 99 99 95 91 92 92 89 88 89 87 86 86 86 87 90 92 92 93 93
94 94 94 94 94 94 94 95 95 95 95 95 95 95 95 96 97 91 93 98 99 98 98 97 99 100 100 94 94 93 94 94 95 95 95 95 95 96 95 94 95 95 94 93
94 94 94 90 86 88 92 95 96 96 96 96 97 97 97 94 96 97 98 98 98 98 97 99 100 100 92 94 94 94 93 93 93 91 90 94 96 96 96 96 95 95 95 95
91 86 85 88 88 92 94 96 92 95 94 94 94 94 95 97 96 98 97 99 95 96 99 96 96 95 89 93 94 94 93 94 94 96 98 98 98 97 97 96 96 96 96 97
88 83 80 83 88 91 87 85 85 84 83 82 86 86 88 91 90 88 93 92 92 93 94 100 91 82 83 84 82 83 85 85 87 90 94 97 99 97 97 96 94 92 93 95
77 82 84 82 87 91 90 87 89 91 88 84 85 88 88 90 92 92 91 92 92 92 91 92 95 95 86 85 83 83 84 82 84 86 82 81 82 84 87 90 92 91 89 86

GFSNGP_925_rhum_222.txt.gz
RH
43 36 33 31 28 25 29 29 44 41 40 33 33 45 42 35 34 41 36 38 42 43 44 54 63 70 66 81 91 88 100 100 100 100 98 98 99 97 92 77 72 68 64 61
55 38 37 41 33 30 28 24 23 23 22 32 43 40 40 37 35 33 33 33 38 41 41 52 59 71 75 82 79 99 99 100 100 100 100 100 100 97 90 88 83 78 76 66
65 45 47 49 33 27 27 36 53 65 62 48 45 40 39 43 31 31 29 29 34 42 43 49 62 76 97 92 93 95 100 100 100 100 100 100 100 100 100 99 94 90 83 72
78 66 83 30 37 45 54 70 72 66 47 36 33 29 27 25 30 28 29 28 29 38 42 47 64 85 96 97 99 100 99 100 100 100 100 100 100 100 100 100 100 97 92 88
74 62 45 35 33 25 28 38 35 45 37 28 28 28 29 24 24 25 27 30 28 35 41 48 66 82 97 100 100 100 99 99 100 100 100 100 100 100 100 100 100 100 99 97
70 74 79 28 24 18 22 39 34 32 32 33 34 47 38 31 28 27 28 30 30 36 40 49 66 80 98 100 100 100 100 99 99 99 99 100 100 100 100 100 100 100 100 100
79 87 55 28 23 27 52 55 31 32 34 37 42 40 35 31 31 28 28 29 34 32 41 48 65 79 97 100 100 99 100 100 100 100 99 99 100 100 100 100 100 100 100 100
54 61 69 25 31 44 36 31 31 34 36 38 37 37 37 35 35 34 33 29 30 30 39 44 64 80 93 100 100 100 99 100 100 100 100 100 99 100 100 100 100 100 100 100
72 64 40 40 43 35 34 35 35 38 38 43 47 45 43 43 39 36 35 31 30 30 38 42 66 83 94 100 100 100 100 100 100 100 100 100 100 100 100 100 99 99 99 100
92 53 49 43 40 37 36 41 42 41 43 47 52 52 55 60 58 48 38 34 34 33 36 47 70 85 97 100 100 100 100 100 100 100 100 100 100 100 100 100 99 99 98 98
85 68 66 51 45 45 44 43 45 44 46 51 56 61 65 63 62 59 51 42 39 36 39 50 75 86 97 100 100 100 100 100 100 100 100 100 100 99 99 99 94 94 90 87
89 68 63 57 47 44 47 47 44 46 52 56 51 51 48 53 59 65 58 50 42 39 42 50 73 88 97 99 100 100 100 100 100 100 100 100 99 98 83 67 76 63 51 43
72 58 56 56 56 51 53 53 51 50 48 50 46 45 45 48 63 70 60 50 45 42 42 50 80 94 97 100 100 100 100 100 100 100 98 89 85 87 90 84 47 41 42 44
58 60 77 65 72 58 56 52 51 49 48 48 48 47 46 60 78 68 55 48 42 41 46 67 83 94 98 100 100 100 100 99 99 98 95 88 86 85 81 78 81 80 73 60
72 69 69 61 56 58 56 56 60 56 51 48 46 47 46 52 78 75 52 45 46 67 77 84 94 99 100 100 100 100 100 100 99 99 94 92 86 72 70 75 81 83 82 84
82 66 62 72 70 71 79 80 74 67 58 53 49 48 49 49 67 76 70 56 84 96 86 98 100 100 100 100 99 100 100 99 99 100 98 84 76 71 69 71 76 80 81 80
91 86 88 87 89 90 94 83 94 83 69 64 56 52 53 70 85 86 79 88 93 97 98 100 99 100 100 100 100 99 100 100 99 99 88 77 75 69 63 63 68 69 68 68
92 91 93 94 93 93 92 94 84 75 72 64 65 66 86 95 94 94 100 99 99 99 100 100 99 99 99 99 99 99 99 99 99 98 92 87 84 80 62 61 61 62 64 71
93 93 93 93 94 92 92 92 94 95 96 97 96 96 97 97 97 98 98 97 98 97 100 99 99 99 99 99 99 98 98 98 98 98 97 98 86 64 62 62 64 66 68 73
90 91 92 93 93 93 91 94 93 94 96 96 95 94 94 96 97 97 96 96 98 98 98 98 98 98 98 98 98 97 97 98 98 97 93 79 70 69 70 71 74 76 76 77
92 92 90 92 93 93 94 95 94 94 95 96 95 95 96 96 97 96 93 93 98 98 98 98 98 98 98 98 98 97 98 98 97 92 86 83 85 82 84 84 83 82 83 84
94 93 92 92 93 94 95 95 95 95 95 94 95 94 93 96 96 96 98 97 98 98 98 98 98 99 98 98 98 98 96 95 92 88 87 83 83 85 87 88 89 89 88 88
94 95 94 94 95 93 93 95 95 96 95 95 95 96 95 96 96 92 92 98 98 98 98 99 98 98 99 97 97 97 95 95 95 94 92 90 91 92 93 93 95 94 93 93
94 91 95 94 89 88 91 95 96 96 96 96 97 97 96 94 95 98 97 97 98 98 98 97 99 100 97 95 94 93 92 90 89 91 94 96 92 93 93 94 94 92 94 92
91 87 90 90 89 92 91 95 88 89 88 85 89 93 94 94 95 97 95 96 95 98 98 94 93 91 82 85 87 90 95 97 95 91 92 93 94 94 93 92 91 90 92 96
89 90 89 90 93 94 93 86 88 89 84 82 84 86 88 93 93 93 97 96 96 97 99 100 92 85 88 85 82 82 82 83 81 90 85 84 80 78 76 76 77 78 78 79
84 86 88 85 88 91 91 93 93 92 96 91 87 88 89 91 94 92 93 94 95 94 90 89 93 91 81 79 79 80 79 78 84 77 74 74 74 74 75 76 77 77 78 78

GFSNGP_925_rhum_225.txt.gz
RH
55 49 44 42 40 36 42 34 38 23 26 28 54 50 43 41 33 32 32 30 30 38 44 46 49 62 70 91 94 98 96 100 100 99 99 100 100 99 95 90 84 82 78 74
61 41 42 52 43 42 40 38 36 31 34 50 39 30 29 30 37 31 31 31 30 30 38 45 49 63 72 90 93 98 100 99 99 100 100 100 99 98 96 91 86 83 82 74
73 57 51 52 51 42 66 58 65 86 93 42 34 32 32 31 34 32 30 28 34 32 34 45 49 67 70 84 94 99 100 100 100 100 100 100 100 100 100 94 90 88 83 83
80 65 91 44 25 24 27 29 43 44 39 35 35 33 34 30 33 35 31 30 33 34 31 40 43 62 71 78 95 100 100 100 99 100 100 100 100 100 100 100 100 95 89 78
84 68 53 41 33 33 30 34 37 36 33 34 37 40 38 29 33 34 34 32 34 31 30 37 38 61 69 77 94 100 100 99 100 100 100 100 100 100 100 99 99 99 98 93
90 94 80 42 34 26 27 37 37 32 32 36 41 54 45 35 33 36 34 32 32 31 33 32 29 61 69 78 88 99 100 98 98 99 100 100 100 100 100 100 100 100 100 95
57 69 54 51 34 31 38 41 37 33 38 39 46 44 39 39 40 38 37 37 35 35 34 32 28 59 71 80 82 97 99 100 100 100 100 99 99 99 99 100 100 100 100 100
72 72 78 39 48 56 44 44 43 41 40 43 47 49 45 43 46 48 50 46 42 40 38 33 32 61 74 83 78 96 100 100 100 100 100 100 99 100 100 100 100 100 100 100
94 71 48 49 60 56 52 52 53 53 50 50 51 50 48 51 48 49 55 60 53 51 41 36 35 42 82 69 81 100 100 100 100 100 100 100 100 100 100 100 99 99 99 99
78 59 58 54 43 43 45 49 48 48 48 46 49 46 46 46 57 64 58 55 55 61 52 45 42 39 68 74 79 100 100 100 100 100 100 100 100 100 100 100 100 99 99 99
71 47 63 48 53 54 56 53 53 50 48 49 50 53 54 59 54 51 49 49 50 65 62 52 42 40 60 78 86 100 100 100 100 100 100 100 100 99 100 100 99 99 100 99
90 81 87 81 65 55 60 58 54 54 55 50 50 52 49 51 48 48 47 44 59 74 69 58 46 42 66 82 91 100 100 100 100 100 100 100 100 100 99 98 99 99 98 94
86 69 73 71 63 56 62 63 60 60 58 61 55 52 51 51 49 50 50 54 69 75 67 53 49 49 70 84 95 100 100 100 100 100 100 100 100 98 98 99 100 100 100 100
77 91 83 69 88 75 67 73 78 73 65 60 55 52 50 50 50 50 53 58 75 71 60 52 47 60 82 87 99 100 100 100 100 99 100 100 99 92 89 91 96 99 97 93
78 77 84 89 82 86 88 90 90 91 90 81 62 56 52 51 52 50 49 66 78 84 80 73 90 96 99 100 100 100 100 100 100 99 99 99 96 88 91 94 94 95 90 86
79 63 67 75 83 86 87 86 90 91 83 82 67 60 55 52 53 54 60 74 87 89 95 98 98 98 98 100 100 100 100 99 99 99 99 98 94 86 86 86 87 89 90 90
91 87 88 86 88 88 92 91 91 93 93 94 83 71 66 62 62 71 86 92 94 90 89 93 96 98 100 100 99 100 100 99 99 99 98 98 81 77 82 82 84 84 85 85
93 89 92 93 93 92 90 90 90 91 94 95 96 96 96 96 96 97 98 98 96 95 97 99 99 100 99 99 99 99 99 99 99 98 98 93 79 83 81 72 74 75 75 80
92 93 93 93 93 89 90 91 93 94 94 95 95 95 95 96 96 97 97 95 96 95 98 99 99 99 99 99 99 99 99 99 99 98 98 94 89 86 92 92 65 62 66 79
88 90 92 90 90 94 92 94 94 93 95 94 89 93 94 95 96 96 96 96 98 98 98 98 97 98 98 99 98 98 99 98 98 98 97 98 97 96 88 76 73 68 73 80
90 92 92 92 91 94 95 96 94 94 95 95 94 94 94 96 96 94 93 93 98 98 98 98 98 98 98 98 98 98 98 98 97 98 98 98 97 87 80 77 76 77 78 78
93 93 94 93 92 93 96 96 95 95 95 94 95 95 93 93 95 93 97 97 98 98 98 98 98 98 98 98 98 97 97 97 97 97 96 95 94 92 90 86 84 85 85 86
95 95 95 95 95 96 91 96 96 96 95 95 95 96 96 96 96 92 91 97 98 98 98 98 98 99 99 97 97 97 96 96 96 95 92 88 87 87 87 88 88 86 87 88
96 95 96 96 92 90 91 96 96 96 96 96 97 97 97 95 94 97 97 98 98 97 98 97 98 99 99 98 97 96 96 97 96 95 95 92 87 86 86 86 86 85 85 86
96 94 94 92 90 94 95 91 88 89 92 94 93 94 96 97 96 98 97 98 96 98 97 95 94 93 88 89 92 97 100 92 84 81 81 80 81 79 80 80 82 82 84 88
95 93 90 89 92 94 94 89 89 93 90 88 87 89 91 96 96 94 97 96 96 97 100 100 94 84 87 82 79 81 82 80 74 76 72 71 71 70 69 69 70 71 72 73
88 89 91 87 92 95 94 94 96 94 97 96 94 94 94 95 98 96 97 98 100 100 98 99 100 97 90 87 87 85 83 82 84 81 80 79 79 78 78 78 78 77 77 76

GFSNGP_925_rhum_228.txt.gz
RH
64 55 47 44 40 39 53 45 40 25 23 47 44 36 33 31 35 31 31 30 29 34 34 36 47 54 68 61 69 90 97 100 100 100 100 100 100 100 100 96 96 96 87 88
66 46 45 51 47 47 48 58 52 53 43 46 35 32 36 35 36 35 34 32 31 30 33 32 38 48 68 69 67 86 98 100 100 93 100 100 100 100 100 100 99 97 100 93
80 62 54 51 36 54 80 46 51 89 68 37 35 35 38 39 36 40 36 35 34 33 34 34 33 44 54 70 65 75 98 100 99 99 100 100 100 100 100 100 97 99 97 95
88 72 94 40 31 33 38 35 36 36 35 35 35 36 38 35 37 40 37 37 36 34 34 35 34 39 38 55 68 72 88 100 98 97 98 100 100 100 100 100 100 99 98 93
91 89 60 45 37 36 38 37 35 39 37 35 36 44 37 33 34 38 40 40 37 35 35 36 37 37 36 45 69 69 70 94 100 98 99 100 100 100 100 100 100 99 97 91
71 78 80 45 29 34 32 40 42 47 49 49 46 61 47 37 39 42 41 41 42 40 39 39 39 38 42 55 72 72 71 92 98 98 99 100 100 100 100 100 100 100 98 94
78 88 70 42 50 41 60 52 55 56 55 54 61 51 44 44 46 44 43 47 47 49 48 46 47 45 47 54 74 55 69 82 100 98 99 100 100 100 100 100 100 100 100 99
79 86 85 60 64 88 76 60 58 56 56 58 57 53 51 49 48 46 46 45 47 61 58 55 54 53 52 59 44 47 75 90 100 99 99 100 100 100 100 99 100 100 100 100
95 85 55 49 57 46 52 56 56 57 55 56 57 54 49 48 45 42 42 46 65 59 58 57 57 60 52 50 43 55 83 96 100 100 100 100 100 100 100 100 100 100 100 100
79 48 50 56 51 46 50 57 55 53 55 55 59 54 52 49 50 52 55 56 53 52 54 51 58 67 61 56 44 69 92 98 100 100 99 100 100 100 100 100 100 99 100 99
79 55 67 54 55 58 61 61 62 58 58 58 60 61 57 54 50 48 46 48 49 51 49 46 64 75 70 60 54 83 98 99 100 100 100 100 100 100 100 100 99 99 99 99
90 79 93 83 71 69 80 82 79 79 82 72 66 65 61 61 56 53 51 49 48 48 49 61 72 79 76 60 54 87 100 100 100 100 99 100 99 100 99 98 99 99 99 99
93 89 82 74 59 64 89 87 90 92 90 92 83 78 71 64 58 57 55 53 53 54 55 68 79 76 69 60 58 93 100 100 100 100 100 100 100 99 99 100 99 99 99 100
83 92 82 71 90 87 92 90 91 91 86 92 92 93 90 73 61 57 54 53 53 55 56 78 82 86 77 66 80 98 100 99 100 100 100 100 100 100 99 98 98 99 100 100
76 74 79 77 74 82 81 76 82 80 84 89 92 90 79 71 63 58 54 52 52 60 73 81 91 99 99 98 99 100 100 100 100 100 100 99 99 100 100 100 100 99 100 100
80 64 66 71 72 74 80 84 88 86 88 88 91 94 78 65 62 61 59 59 68 83 78 83 88 92 96 97 98 100 100 100 99 99 100 99 99 99 99 96 97 97 96 99
92 86 89 86 86 86 86 88 90 90 86 88 94 95 94 95 96 97 98 98 99 100 100 100 99 88 90 94 97 100 100 100 99 99 99 99 99 98 96 98 99 99 98 98
93 90 93 94 93 92 90 88 90 91 92 94 92 91 91 92 95 95 97 97 92 90 98 99 99 99 99 100 100 100 99 100 100 99 99 98 98 99 98 98 97 97 97 96
94 94 94 94 94 92 92 92 94 94 94 95 93 93 93 94 95 97 97 92 93 92 98 99 99 99 100 99 99 99 99 99 99 99 98 99 98 98 98 97 97 96 88 90
89 90 90 92 92 94 92 94 95 93 95 95 91 91 92 94 95 95 95 94 98 98 98 98 97 98 98 99 98 98 98 99 98 98 98 98 98 98 97 97 96 85 80 81
93 93 91 94 94 94 96 96 95 94 96 96 95 94 95 95 96 93 89 90 98 97 98 97 98 98 98 98 97 98 98 98 98 98 98 98 98 97 97 95 85 83 84 84
95 95 94 95 93 93 96 97 96 96 95 95 95 95 93 94 94 93 96 96 97 98 98 98 98 98 98 98 98 98 97 97 97 97 97 97 97 96 90 86 83 82 80 80
96 96 96 95 96 96 94 96 96 97 96 96 96 96 96 97 97 92 90 97 98 97 97 98 98 98 99 97 97 97 97 98 97 97 96 94 92 92 91 89 88 88 89 89
96 96 96 95 92 90 91 95 97 96 97 96 97 97 98 95 93 97 97 98 98 97 98 97 98 99 100 97 97 97 96 97 96 96 96 91 88 85 84 85 84 85 86 86
97 94 93 94 92 94 96 91 87 92 89 87 90 92 96 100 99 100 99 100 96 98 100 96 96 94 86 90 92 95 97 88 80 76 75 74 73 72 72 70 70 72 74 74
95 96 92 94 96 97 97 92 92 94 91 90 91 95 96 100 100 100 100 100 100 100 100 100 99 95 97 95 92 91 91 88 81 81 78 76 75 73 72 70 70 69 68 67
90 89 92 88 94 99 97 96 98 96 98 98 96 99 100 100 100 99 100 100 100 100 100 100 98 100 98 99 99 99 100 100 100 100 100 100 100 100 99 98 97 96 96 94

GFSNGP_925_rhum_234.txt.gz
RH
61 59 54 54 53 50 57 55 61 77 62 48 43 40 40 38 37 35 36 34 35 36 38 36 38 44 46 49 49 50 62 67 67 79 96 96 91 99 100 100 99 100 100 100
79 59 58 60 76 84 81 71 80 82 87 84 61 42 35 36 39 38 38 36 36 38 39 39 42 44 47 51 51 50 58 65 57 72 90 99 95 95 100 100 100 100 100 100
88 64 67 86 90 86 74 55 61 59 54 62 51 52 48 46 42 41 40 39 39 41 42 43 46 48 48 51 54 52 59 56 58 67 84 99 97 94 99 100 100 100 100 100
80 62 89 73 70 72 66 51 71 70 71 67 65 61 56 47 46 46 49 48 47 46 46 46 48 48 45 52 57 55 60 57 57 65 85 96 100 97 99 100 100 100 100 100
83 83 51 78 79 72 74 76 65 66 65 60 55 54 46 53 54 55 52 47 45 43 46 47 50 46 45 58 58 59 60 62 57 64 90 98 100 100 100 100 100 100 100 100
84 95 86 88 64 48 61 71 63 62 64 64 60 82 58 45 46 47 45 45 44 44 43 44 43 40 49 66 61 63 59 66 59 59 88 97 100 99 100 100 100 100 100 100
85 92 79 73 53 43 64 71 62 63 66 72 82 71 58 54 53 50 49 48 47 46 45 44 44 46 65 64 61 57 55 68 64 59 81 87 100 99 100 100 100 100 100 100
81 85 90 51 62 91 72 80 77 82 80 78 72 69 66 61 58 55 56 55 54 52 50 48 48 57 63 61 56 54 54 73 71 66 86 91 100 99 98 100 100 100 100 100
95 76 47 52 57 54 59 91 84 89 86 87 87 78 69 68 67 64 62 60 58 55 53 50 62 55 51 50 58 51 63 80 75 74 99 100 100 100 98 100 100 100 100 100
83 50 53 54 47 50 70 76 79 86 87 90 91 86 84 80 75 72 69 67 64 60 58 55 52 50 51 56 54 53 76 85 78 86 96 96 99 100 99 100 100 100 100 100
79 58 67 52 56 76 83 78 78 80 76 87 92 86 81 89 84 85 79 75 74 69 62 59 56 55 56 53 55 70 85 85 81 88 96 98 99 100 100 99 100 99 99 99
93 69 91 83 72 75 89 82 81 88 86 77 77 90 87 86 84 94 92 90 87 80 68 63 61 60 59 58 64 82 89 90 83 85 94 96 99 99 99 99 99 99 100 99
94 92 86 76 59 64 87 86 90 88 89 93 87 87 91 91 90 92 93 88 97 86 71 67 66 66 60 58 69 81 92 99 88 88 90 92 100 100 100 99 99 99 99 99
75 93 76 66 86 80 89 84 76 72 69 77 89 91 92 88 83 86 94 96 85 74 70 66 66 65 57 58 69 78 99 96 100 91 88 88 100 100 99 100 100 100 99 99
72 74 77 68 66 69 73 76 81 75 75 78 80 82 88 90 89 93 95 97 97 95 81 73 71 69 67 73 81 84 91 90 96 95 84 87 100 100 100 100 99 100 100 100
83 68 63 70 70 74 78 82 87 85 84 86 83 87 92 91 87 91 94 96 96 95 98 99 98 96 98 99 98 91 84 89 92 89 94 100 100 100 100 100 100 100 100 100
92 84 86 83 84 86 87 91 92 90 87 89 92 94 90 87 81 88 92 96 97 98 98 98 98 95 90 93 97 100 88 83 92 100 100 100 100 100 99 100 100 100 99 99
95 93 94 94 94 93 89 91 92 92 93 95 94 93 92 92 93 93 94 96 88 86 97 99 98 98 99 99 99 100 100 99 93 100 100 100 100 99 99 99 99 99 100 100
95 95 95 95 95 94 94 93 94 95 95 96 95 94 94 95 95 96 95 91 89 88 96 99 100 97 99 98 95 99 100 100 100 100 99 99 99 99 99 99 99 99 98 98
92 92 94 94 94 96 94 94 95 94 96 96 95 91 91 94 96 95 94 89 97 98 98 99 96 99 97 99 99 98 98 98 98 99 98 98 99 99 99 99 98 98 98 98
94 95 94 95 94 95 97 97 96 95 96 96 96 95 96 96 96 96 89 87 97 97 96 98 97 98 98 97 97 97 98 98 98 98 98 98 98 98 98 98 98 97 96 96
97 97 96 97 96 95 97 97 98 96 97 96 96 96 95 92 93 86 91 97 97 97 98 98 98 97 98 99 98 98 97 97 97 98 97 97 97 97 97 97 97 96 96 90
99 100 99 100 100 99 94 96 98 99 99 98 98 97 97 97 97 93 90 97 97 97 97 98 97 98 99 97 97 97 97 97 97 97 97 97 97 97 97 96 96 96 96 96
98 99 97 99 94 94 94 98 95 98 93 96 100 100 100 99 88 100 98 100 98 100 99 97 97 99 99 97 97 97 97 96 96 96 96 96 96 96 96 96 95 96 95 94
94 99 93 97 93 97 98 99 93 96 93 92 96 100 99 98 98 100 100 100 100 99 99 100 100 100 97 96 96 97 96 97 95 90 86 83 78 73 73 74 75 71 68 67
94 100 93 94 98 100 100 99 97 97 96 96 94 100 98 100 100 94 98 100 100 100 100 99 100 97 98 100 98 100 100 98 96 99 98 98 99 99 99 99 99 99 98 97
93 94 94 92 96 99 100 100 100 100 100 100 100 100 100 96 97 93 97 96 97 98 98 98 96 99 98 99 97 97 97 98 100 98 98 98 97 98 99 98 98 99 100 100

GFSNGP_925_rhum_237.txt.gz
RH
67 57 57 57 60 76 77 63 78 87 80 88 82 59 42 43 41 40 36 34 36 37 37 40 43 47 50 49 48 58 60 55 63 64 64 80 94 97 95 100 100 99 100 100
85 58 64 91 77 89 90 69 65 56 82 83 62 53 55 51 46 49 45 40 45 45 44 46 47 48 51 50 46 56 65 58 57 63 68 78 88 99 96 100 100 100 100 100
82 62 61 90 91 82 69 72 72 84 87 59 59 53 52 53 48 55 57 53 50 45 42 41 42 46 51 50 47 57 68 59 57 65 70 77 90 100 98 99 100 100 100 100
86 65 84 92 58 51 52 69 65 64 64 59 59 54 51 44 50 48 45 41 39 38 40 41 41 42 43 48 46 60 69 60 57 70 71 74 92 100 99 99 100 100 100 100
88 90 63 83 75 70 69 71 74 76 70 64 60 62 49 39 42 48 49 48 47 46 45 45 45 44 46 46 47 66 68 60 58 69 73 79 97 100 100 99 100 100 100 100
86 93 85 89 58 56 51 92 78 72 74 79 74 86 58 50 54 55 55 54 53 53 51 50 49 47 47 48 53 67 66 58 52 67 73 80 95 98 100 100 100 100 100 100
90 95 92 71 62 46 64 74 79 75 81 84 89 77 67 61 61 59 58 57 57 57 57 56 54 53 52 52 56 69 58 53 50 66 75 73 100 95 99 100 99 100 100 100
86 89 90 68 62 86 91 81 77 87 82 87 83 75 70 64 63 63 65 65 65 64 62 60 59 57 55 55 67 57 50 57 52 71 76 84 99 99 98 100 99 100 100 100
96 82 50 52 55 63 68 91 80 88 81 81 86 79 74 73 71 69 70 70 70 71 69 65 62 59 58 63 58 52 60 58 58 79 78 89 98 96 99 99 99 99 100 100
80 52 60 51 48 53 71 75 74 78 83 83 90 80 78 78 76 74 77 78 80 87 81 74 69 64 60 57 54 58 62 58 72 86 82 88 96 98 100 100 100 99 100 100
82 60 66 47 57 69 79 76 74 81 78 81 82 84 79 85 77 80 84 85 95 93 81 80 76 68 63 60 60 62 62 71 89 87 84 87 94 98 100 100 100 100 99 100
94 72 94 81 67 68 88 84 86 91 88 78 78 89 86 84 80 84 92 91 93 91 88 91 81 71 66 63 61 65 78 91 89 97 94 84 89 92 99 99 99 100 99 100
94 92 90 77 63 63 82 84 90 90 90 93 88 90 90 88 84 89 88 88 90 95 96 93 84 75 70 65 64 66 80 87 90 97 97 93 87 93 100 98 98 100 99 100
91 94 77 64 87 73 79 88 78 74 72 79 82 81 84 84 80 83 88 94 96 96 98 96 80 75 67 63 63 66 72 83 99 94 86 95 81 89 100 100 99 100 99 99
73 78 80 71 68 71 73 76 80 74 75 79 80 80 85 90 88 92 95 96 96 92 95 98 98 95 97 94 86 82 83 88 94 94 100 93 83 96 100 100 100 100 100 100
83 68 64 72 70 73 79 83 86 82 82 85 83 87 93 94 94 94 92 96 95 93 95 97 98 98 98 99 99 99 94 97 92 87 86 86 86 100 100 99 99 100 100 100
92 85 87 84 85 86 86 86 92 92 90 89 93 94 93 89 86 89 91 95 98 98 97 98 98 98 98 99 97 96 100 98 91 85 87 96 99 100 97 99 99 100 100 99
95 92 92 94 94 92 88 90 92 93 94 95 95 94 93 92 94 94 95 97 94 92 94 100 98 97 98 100 100 99 98 98 94 92 95 100 100 100 100 98 99 100 100 100
96 95 95 95 96 95 94 94 95 96 96 96 95 95 96 95 96 96 97 92 92 90 95 99 100 99 97 99 99 99 99 99 100 100 100 99 99 99 100 99 99 99 100 99
92 93 94 94 93 96 94 94 96 95 97 96 96 93 92 94 96 96 95 88 97 98 97 97 96 98 98 98 99 98 98 98 98 98 99 99 98 99 99 98 98 98 98 98
94 96 95 96 96 96 98 98 98 96 96 97 96 96 96 95 96 94 90 91 96 97 97 98 98 98 98 98 97 98 98 98 98 98 98 99 98 98 98 98 98 98 97 97
98 98 99 98 98 97 96 99 100 100 99 98 98 100 97 93 92 88 86 98 97 98 98 97 98 97 98 99 97 97 98 98 98 98 98 98 97 97 97 97 97 97 97 96
97 99 100 100 99 98 96 96 96 100 98 100 100 100 100 99 98 94 91 96 97 99 98 98 97 98 100 97 97 97 97 97 97 97 97 97 97 97 97 96 96 96 96 96
95 95 97 97 94 96 97 99 94 98 97 96 99 100 100 100 89 99 100 100 99 100 100 97 98 99 100 97 97 97 97 97 96 96 96 96 96 96 96 96 96 96 96 96
93 96 92 97 94 99 100 100 95 96 95 93 96 100 99 100 99 99 100 100 100 99 98 100 99 99 96 96 97 97 97 97 96 96 96 96 95 94 92 89 86 80 73 71
93 100 91 93 98 100 100 100 99 99 98 96 95 100 100 98 100 93 95 97 98 100 97 98 99 96 96 98 97 97 96 97 96 99 97 98 98 97 97 97 97 97 98 99
92 96 94 94 98 100 100 100 100 100 100 99 97 100 100 99 97 92 95 93 94 97 97 96 96 98 96 97 96 97 98 98 99 98 98 97 96 95 96 96 97 97 96 98

GFSNGP_925_rhum_243.txt.gz
RH
29 71 60 60 67 55 66 57 71 80 72 56 45 40 37 34 34 32 30 32 31 31 30 31 31 33 35 38 41 42 45 49 61 70 64 53 58 60 59 68 90 96 100 99
36 52 50 64 55 47 44 49 45 39 52 38 34 34 37 38 36 32 33 33 34 34 35 35 35 37 38 41 41 43 42 47 46 57 59 51 58 60 59 65 79 96 98 100
40 22 52 69 78 52 43 41 51 70 55 37 42 42 42 40 32 36 39 39 40 38 39 40 40 41 43 44 45 44 46 46 44 50 58 51 50 61 62 64 75 93 98 100
42 30 59 70 46 42 39 42 52 49 44 43 45 42 38 28 37 42 41 40 40 41 42 44 44 44 44 45 46 47 48 48 45 48 56 52 49 62 65 68 75 89 99 100
47 46 52 57 55 55 48 43 53 50 47 46 46 44 34 32 40 42 40 40 41 43 44 46 48 48 47 48 49 50 50 48 47 47 59 56 50 60 70 74 80 91 100 99
40 58 62 68 52 39 32 68 48 48 54 57 57 73 52 46 44 42 43 44 44 46 49 49 50 52 53 54 54 52 50 50 50 49 59 57 52 62 75 86 94 95 99 99
42 47 68 52 45 35 48 73 51 52 60 71 78 69 56 48 46 45 45 47 48 51 51 53 54 56 59 59 57 56 54 54 53 54 58 54 50 68 84 92 97 99 96 98
46 49 70 39 45 76 84 56 55 62 62 75 67 60 54 50 48 48 49 50 51 54 57 57 61 62 66 69 61 57 56 54 53 54 50 48 52 76 91 93 98 99 94 98
70 53 36 33 43 49 44 67 61 61 61 68 70 62 56 54 52 53 53 53 55 57 65 65 63 64 67 70 65 61 57 55 52 50 47 48 54 79 87 88 91 98 91 100
61 35 39 40 40 40 47 56 55 56 62 70 76 64 60 61 59 60 60 60 59 68 69 68 70 71 71 79 71 66 61 58 54 50 50 51 67 77 79 85 89 94 91 100
50 35 50 37 45 51 53 54 59 62 62 64 71 76 63 68 66 68 66 65 71 68 72 73 75 76 86 82 81 78 67 59 55 53 51 58 71 76 76 83 89 99 94 97
70 56 85 68 54 48 68 68 69 76 83 67 64 72 72 75 72 72 80 73 75 74 75 81 82 86 86 92 87 78 66 60 57 56 58 66 77 79 76 82 87 93 93 98
87 77 72 56 46 58 72 72 78 90 82 91 77 77 85 84 79 77 74 80 84 88 89 88 89 91 92 98 97 73 65 64 63 64 67 69 80 82 74 75 79 86 97 98
66 80 70 57 80 74 83 82 84 79 76 84 92 85 83 79 74 78 89 94 95 95 92 93 95 94 97 98 99 98 76 68 68 67 72 76 98 98 94 98 99 99 88 99
63 72 74 75 70 75 79 79 77 73 79 79 81 84 81 86 86 92 95 96 94 93 90 96 95 94 97 98 99 99 99 91 84 79 79 88 98 100 100 98 100 100 97 98
68 58 57 64 64 71 76 75 80 77 81 83 83 86 92 94 94 94 95 95 95 92 96 95 95 97 97 96 96 98 98 99 94 92 89 98 97 97 94 96 100 100 99 99
87 79 82 77 76 80 85 87 88 90 85 87 93 95 94 90 84 88 93 94 97 97 97 97 97 98 97 97 98 99 98 97 94 99 98 97 93 96 97 99 100 99 99 99
87 87 88 90 92 91 83 81 86 90 94 95 96 94 93 93 94 94 95 95 93 89 94 98 98 96 97 98 97 98 99 97 96 96 93 92 94 97 98 99 98 99 99 99
90 94 93 89 91 89 87 90 95 96 97 98 97 95 96 95 96 96 96 94 92 91 95 97 97 98 98 98 97 98 99 98 98 98 98 98 99 99 99 98 98 99 99 99
84 88 86 85 85 91 92 96 99 97 99 99 98 95 95 95 97 96 92 86 97 98 98 97 97 98 98 97 98 98 98 98 100 100 99 99 98 98 98 99 99 98 98 98
92 93 90 92 94 93 98 100 100 99 100 100 99 99 99 96 97 98 91 88 96 97 98 99 98 98 98 97 98 98 98 98 98 98 98 99 99 99 99 98 98 98 98 98
97 99 99 100 100 99 93 98 100 100 100 99 99 100 99 94 95 89 89 98 97 97 99 98 98 98 97 98 98 98 98 98 98 98 98 98 98 98 98 98 98 98 97 97
100 99 98 100 100 100 94 98 97 98 100 99 99 100 100 98 98 95 91 96 98 98 98 98 98 98 100 97 98 97 97 97 98 98 98 98 98 98 98 98 97 97 96 96
96 94 100 96 94 93 95 96 92 91 94 90 92 98 100 98 90 98 100 100 99 98 99 98 98 100 100 97 98 99 98 97 97 97 97 99 97 97 96 96 96 96 96 95
98 98 94 93 86 89 92 89 83 83 86 83 82 90 95 98 99 97 98 98 100 100 98 100 100 100 96 97 97 97 98 98 97 97 98 97 97 96 95 96 97 95 89 85
94 92 86 87 91 89 90 88 85 83 90 88 84 89 94 97 98 94 98 100 95 99 99 98 99 97 96 96 96 97 97 96 96 96 97 97 96 96 97 97 97 96 96 98
82 85 83 81 84 89 92 90 90 90 93 96 92 91 95 98 97 95 98 94 92 95 100 97 96 98 98 98 96 97 97 97 99 98 98 98 98 99 100 100 100 99 99 100